Погода в Киеве

Украина / Киевская область     50°27′01″N   30°31′24″E
темп.,
°C
ветер,
м/с
пор.,
м/с
влажн.,
%
обл.,
%
осадки,
мм/ч
давл.,
гПа
погр.,
м
6 декабря, пн
пн623:00−1юв388796 0.1 1014356
02:00−1юв4997100 1.1 1013332
05:00−1вюв3997100 1.1 1012333
08:000юв3799100 1.8 1013348
11:00+1вюв26100100 0.2 1012261
14:00+1вюв26100100 0.3 1011203
17:00+1вюв38100100 0.8 1011238
20:00+2вюв310100100 1.9 1009291
7 декабря, вт
вт723:00+3юв311100100 0.8 1008290
02:00+3ю27100100 0.9 1008178
05:00+3зюз25100100 0.1 1008139
08:00+2сз2598100 0.1 1009210
11:00+2ссз2497100 0.4 1010207
14:00+2ссз3696100 1.1 1010323
17:00+2с3796100 0.6 1009387
20:00+2с3796100 0.8 1010366
8 декабря, ср
ср823:00+2с4895100 0.4 1010406
02:00+1с4992100 0.8 1010400
05:00+1ссв51091100 0.1 1010454
08:00+1ссв51190100 0.2 1010447
11:00+1ссв51193100 2.4 1010427
14:000ссв51198100 7.8 1008385
17:00+1ссв51099100 4.4 1009418
20:00+1ссв4898100 6.1 1009389
9 декабря, чт
чт923:00+1ссв3798100 0.7 1009320
02:00+1с3798100 1.2 1010328
05:00+1с3697100 0.6 1010274
08:00+1с2497100 0.8 1012236
11:00+1ссз2496100 0.1 1013222
14:00+2ссз239499 0.1 1013194
17:00+2всв119584 0.0 101496
20:00+2ююв119696 0.0 101444
10 декабря, пт
пт1023:00+3вюв249687 0.0 1014120
02:00+3юв389888 0.0 1014208
05:00+3юв4119699 0.0 1013382
08:00+3вюв51492100 0.0 1012394
11:00+5вюв51394100 0.1 1011515
14:00+6юв61496100 0.3 1009601
17:00+7юв61591100 0.0 1009595
20:00+8юв61494100 0.4 1008636